Flag for Mexico Weather past 2 weeks in Ojinaga, Chihuahua, Mexico

Now
57 °F

Partly cloudy.


Feels Like: 57 °F
Forecast: 62 / 76 °F
Wind: 5 mph from Northeast

Location: Marfa Municipal Airport

Current Time: Oct 20, 2014 at 10:12:35 PM

Latest Report: Oct 20, 2014 at 9:55 PM


Visibility: 10 mi

Pressure: 30.16 "Hg

Humidity: 94%

Dew point: 55 °F

Location of OjinagaLocation

Historic Weather in Ojinaga — Graph

°F

Ojinaga temperature yesterday

Maximum temperature yesterday: 75 °F (at 1:15 PM)
Minimum temperature yesterday: 54 °F (at 4:55 AM)
Average temperature yesterday: 64 °F

Past Weeks' High & Low Weather Summary

 TemperatureHumidityPressure
High86 °F (Oct 8, 1:35 PM)94% (Oct 9, 5:55 AM)30.35 "Hg (Oct 9, 5:55 AM)
Low30 °F (Oct 14, 6:35 AM)13% (Oct 6, 2:15 PM)29.87 "Hg (Oct 12, 5:15 PM)
Average61 °F49%30.13 "Hg
* Reported Oct 5 8:15 PM — Oct 20 8:55 PM, Ojinaga, Weather by CustomWeather, © 2014

Note: Actual official high and low records may vary slightly from our data, if they occured in-between our weather recording intervals... More about our weather records

Advertising

Ojinaga weather history for previous 24 hours

 ConditionsComfort  
Time TempWeatherWind HumidityBarometerVisibility
8:55 PM
Oct 20
57 °FPassing clouds.9 mph94%30.14 "Hg10 mi
8:35 PM57 °FPassing clouds.7 mph94%30.14 "Hg10 mi
8:15 PM55 °FPassing clouds.6 mph94%30.14 "Hg10 mi
7:55 PM55 °FPassing clouds.8 mph94%30.13 "Hg10 mi
7:35 PM57 °FPassing clouds.8 mph88%30.14 "Hg10 mi
7:15 PM57 °FBroken clouds.7 mph88%30.13 "Hg10 mi
6:55 PM57 °FBroken clouds.9 mph88%30.12 "Hg10 mi
6:35 PM57 °FScattered clouds.9 mph94%30.13 "Hg10 mi
6:15 PM57 °FThunderstorms. Broken clouds.9 mph94%30.12 "Hg10 mi
5:55 PM57 °FThunderstorms. Cloudy.8 mph94%30.13 "Hg10 mi
5:35 PM59 °FThundershowers. Mostly cloudy.7 mph82%30.12 "Hg10 mi
5:15 PM61 °FMostly cloudy.13 mph83%30.11 "Hg10 mi
4:55 PM61 °FMore clouds than sun.13 mph83%30.11 "Hg10 mi
4:35 PM63 °FMore clouds than sun.12 mph77%30.11 "Hg10 mi
4:15 PM63 °FCloudy.8 mph73%30.11 "Hg10 mi
3:55 PM63 °FMostly cloudy.8 mph73%30.11 "Hg10 mi
3:35 PM63 °FMostly cloudy.6 mph77%30.12 "Hg10 mi
2:55 PM63 °FOvercast.6 mph73%30.13 "Hg10 mi
2:35 PM63 °FOvercast.7 mph77%30.13 "Hg10 mi
2:15 PM63 °FMostly cloudy.7 mph73%30.13 "Hg10 mi
1:55 PM63 °FMore clouds than sun.5 mph73%30.13 "Hg10 mi
1:35 PM63 °FCloudy.7 mph73%30.14 "Hg10 mi
1:15 PM63 °FMostly cloudy.6 mph73%30.15 "Hg10 mi
12:55 PM63 °FMostly cloudy.8 mph73%30.15 "Hg10 mi
12:35 PM61 °FOvercast.6 mph77%30.17 "Hg10 mi
12:15 PM59 °FMostly cloudy.6 mph82%30.18 "Hg10 mi
11:55 AM57 °FMostly cloudy.3 mph88%30.18 "Hg10 mi
11:35 AM57 °FMostly cloudy.8 mph88%30.19 "Hg10 mi
11:15 AM57 °FOvercast.8 mph88%30.20 "Hg10 mi
10:55 AM57 °FOvercast.12 mph88%30.20 "Hg10 mi
10:35 AM57 °FThundershowers. Mostly cloudy.7 mph94%30.20 "Hg10 mi
10:15 AM59 °FMostly cloudy.6 mph88%30.20 "Hg10 mi
9:55 AM59 °FOvercast.8 mph88%30.19 "Hg10 mi
9:35 AM59 °FMore clouds than sun.8 mph88%30.19 "Hg10 mi
9:15 AM59 °FThundershowers. Mostly cloudy.6 mph88%30.18 "Hg10 mi
8:55 AM57 °FMostly cloudy.6 mph94%30.16 "Hg10 mi
8:35 AM57 °FThundershowers. More clouds than sun.9 mph94%30.15 "Hg10 mi
8:15 AM57 °FOvercast.5 mph94%30.15 "Hg10 mi
7:55 AM55 °FOvercast.10 mph94%30.14 "Hg10 mi
7:35 AM55 °FPartly cloudy.10 mph94%30.14 "Hg7 mi
7:15 AM55 °FMostly cloudy.6 mph94%30.16 "Hg10 mi
6:55 AM55 °FOvercast.3 mph94%30.15 "Hg9 mi
6:35 AM55 °FOvercast.6 mph94%30.15 "Hg9 mi
6:15 AM55 °FMostly cloudy.No wind94%30.15 "Hg9 mi
5:55 AM55 °FMostly cloudy.7 mph94%30.13 "Hg10 mi
5:35 AM57 °FMostly cloudy.6 mph88%30.14 "Hg10 mi
5:15 AM57 °FPassing clouds.5 mph88%30.13 "Hg10 mi
4:55 AM57 °FOvercast.6 mph88%30.12 "Hg10 mi
4:35 AM57 °FPassing clouds.6 mph88%30.13 "Hg10 mi
4:15 AM57 °FPassing clouds.7 mph88%30.13 "Hg10 mi
3:55 AM57 °FPartly cloudy.3 mph88%30.13 "Hg10 mi
3:35 AM57 °FMostly cloudy.5 mph88%30.13 "Hg10 mi
3:15 AM57 °FMostly cloudy.5 mph88%30.13 "Hg10 mi
2:55 AM57 °FPassing clouds.No wind88%30.14 "Hg10 mi
2:35 AM57 °FPassing clouds.7 mph88%30.14 "Hg10 mi
2:15 AM57 °FPassing clouds.8 mph88%30.14 "Hg10 mi
1:55 AM57 °FPassing clouds.7 mph82%30.14 "Hg10 mi
1:35 AM55 °FClear.12 mph88%30.13 "Hg10 mi
1:15 AM54 °FClear.3 mph94%30.10 "Hg10 mi
12:55 AM54 °FClear.5 mph88%30.10 "Hg10 mi
12:35 AM54 °FClear.9 mph88%30.11 "Hg10 mi
12:15 AM54 °FClear.6 mph82%30.10 "Hg10 mi
11:55 PM
Oct 19
54 °FClear.5 mph82%30.09 "Hg10 mi
Weather by CustomWeather, © 2014

See weather overviewHow to use our weather pages